RH
36 38 42 48 52 45 53 53 61 60 58 47 30 24 25 24 20 16 21 24 59 43 34 34 32 66 74 91 98 83 81 64 46 28 21 14 7 5 5 10 19 19 41 55 62 75 60
52 55 59 58 52 54 62 64 63 65 64 59 43 32 29 28 27 22 25 38 62 44 36 14 16 16 58 78 96 92 69 34 17 14 9 8 6 9 12 24 47 60 69 80 76 79 59
60 59 62 63 58 59 63 68 75 65 64 57 44 37 42 34 36 29 31 57 57 32 23 13 13 13 32 100 98 77 36 17 14 16 12 9 10 32 48 61 76 92 71 78 74 57 49
57 63 65 67 72 80 77 68 62 61 62 63 46 42 47 39 39 40 41 61 59 39 30 14 13 13 78 73 93 36 21 30 36 25 14 15 40 54 69 100 100 93 75 92 100 89 89
70 71 80 76 72 70 65 61 56 62 65 68 64 56 46 45 57 52 48 65 60 51 38 25 20 17 39 80 67 24 31 40 44 32 23 44 54 63 85 100 80 92 96 90 98 94 96
79 81 82 74 75 70 61 52 57 60 71 74 72 67 57 50 67 68 58 67 66 59 46 31 18 24 73 92 32 30 46 41 44 34 46 60 82 66 92 70 98 86 82 99 100 89 100
84 78 78 78 76 63 58 62 66 66 62 57 59 52 50 58 84 86 66 60 60 61 40 23 20 59 89 64 30 49 42 41 43 44 68 78 73 75 77 59 98 98 100 82 99 94 97
83 84 85 81 69 66 70 80 77 71 67 52 48 45 51 83 93 100 77 60 56 49 39 25 26 50 79 30 39 46 39 47 46 55 64 67 92 87 79 55 67 87 98 97 100 100 100
88 93 87 77 79 89 86 86 87 68 57 45 42 46 52 84 100 100 94 62 57 51 38 29 24 59 62 28 28 36 41 45 49 48 46 53 64 95 97 99 63 88 100 100 84 87 74
95 94 86 83 97 90 94 90 70 41 30 29 27 25 37 55 99 100 100 62 49 48 43 34 44 97 26 28 41 32 42 34 36 52 51 56 86 95 66 85 95 94 92 85 89 75 99
97 96 88 95 100 94 93 64 36 40 56 57 56 44 28 32 92 98 99 72 49 39 42 50 48 86 25 35 57 44 28 33 52 69 89 91 99 99 60 55 68 82 87 100 79 82 92
100 87 87 100 99 100 78 41 51 79 94 99 90 73 51 25 49 95 93 65 49 45 42 41 87 52 25 44 96 94 86 94 99 92 78 94 74 99 100 70 57 52 68 76 99 98 98
87 65 90 100 97 98 43 58 85 99 100 100 98 99 46 26 24 89 52 51 42 36 42 61 98 24 30 62 87 87 79 94 94 98 96 81 96 100 98 84 65 56 75 93 90 71 70
86 97 100 100 100 59 58 84 96 99 100 93 100 98 65 24 28 44 39 40 37 36 34 66 90 26 39 70 73 90 90 99 100 100 100 97 88 91 91 93 80 51 85 79 91 88 76
100 100 100 100 97 52 83 94 97 100 93 99 100 100 36 21 34 34 32 39 45 28 34 54 86 26 42 63 55 63 97 91 96 100 100 100 98 100 90 67 98 74 92 83 78 95 100
100 86 100 100 46 77 87 100 100 100 99 100 100 93 14 20 31 27 34 34 27 28 36 100 44 28 43 53 60 68 90 78 77 67 92 99 94 99 100 73 66 66 71 61 67 75 73
58 60 100 40 73 77 71 100 93 90 100 100 100 69 16 21 28 27 34 27 26 34 48 100 36 38 54 50 57 70 69 64 66 68 68 98 100 97 100 98 77 56 57 63 62 63 60
25 43 33 52 54 24 93 92 80 87 98 100 100 34 18 21 26 31 29 24 26 35 100 98 29 46 54 43 50 54 53 46 48 54 51 61 86 100 99 92 87 78 74 50 47 47 59
16 25 27 34 16 28 62 67 77 81 100 100 100 69 20 22 25 28 25 24 51 100 100 44 34 47 51 42 50 49 51 49 52 54 62 54 59 95 80 54 63 76 89 66 50 42 43
10 15 16 18 27 25 43 64 64 91 100 99 69 24 18 19 24 24 23 31 100 100 100 25 31 52 49 48 49 50 53 48 48 52 48 51 52 53 60 53 38 43 50 64 53 46 42
7 10 11 17 26 17 40 56 71 82 88 40 20 15 18 21 22 22 30 100 100 100 68 23 32 41 54 54 52 52 35 31 31 44 49 49 53 55 51 47 39 33 32 36 33 32 32
7 9 7 7 12 17 35 54 64 48 44 24 16 17 20 21 22 22 96 100 100 100 25 25 34 35 46 49 45 45 34 26 24 26 40 53 54 50 50 43 40 41 30 28 26 21 18
6 8 5 7 9 15 33 51 42 39 27 17 17 20 22 22 26 91 96 93 99 86 18 24 28 38 39 44 40 40 40 32 27 26 28 30 44 43 38 39 38 43 48 41 29 22 20
5 9 4 5 6 9 12 21 20 21 17 16 18 20 21 40 80 89 98 100 92 16 14 21 20 26 33 36 35 32 28 30 29 26 27 25 23 36 44 38 36 34 33 33 33 30 30
4 8 3 4 5 5 7 10 14 14 17 22 27 30 45 86 91 97 100 71 13 10 11 14 16 20 25 27 28 25 23 28 25 24 27 22 20 19 26 30 29 28 27 26 25 23 22
3 5 4 3 5 5 8 13 18 26 26 36 48 68 81 91 94 97 28 9 6 6 7 10 11 13 18 20 22 22 24 20 19 19 18 17 14 14 17 18 19 17 17 17 16 16 16
4 3 5 3 5 9 14 23 34 41 49 60 68 78 91 99 85 28 8 6 4 4 4 5 6 7 9 10 11 10 11 11 9 9 8 9 9 10 11 11 10 9 8 8 8 10 8
9 4 6 8 8 13 24 39 41 47 51 57 72 83 91 89 35 10 5 4 3 3 3 4 5 4 4 5 5 4 4 4 4 4 4 4 4 4 4 5 7 6 6 5 5 5 5
14 4 8 17 28 26 36 42 45 46 50 60 63 73 75 56 23 7 4 4 3 4 4 4 4 4 4 4 5 5 5 6 7 7 8 9 10 8 10 9 8 9 9 8 8 8 8
Wind_Speed
45 49 51 54 52 48 46 48 51 53 50 46 43 44 44 47 49 50 47 46 44 41 43 42 40 42 41 43 50 46 42 41 43 45 49 55 59 57 49 42 39 39 27 28 32 36 36
48 50 53 54 52 50 50 51 54 55 52 49 47 46 46 50 50 50 48 45 42 43 41 39 37 40 42 47 48 42 40 39 40 44 48 53 46 36 27 18 19 22 28 30 40 45 42
51 54 55 54 53 54 53 56 58 58 58 54 51 50 51 51 52 52 49 43 41 40 40 37 35 38 42 45 42 37 38 38 40 44 46 35 23 5 5 13 21 26 26 24 16 32 45
54 56 55 55 55 55 57 59 59 59 58 56 53 53 54 52 56 52 48 44 41 42 39 36 36 38 41 49 41 36 33 34 37 38 30 13 5 5 10 16 17 16 14 23 10 23 32
56 59 58 58 57 57 59 61 61 61 60 57 55 55 57 56 56 53 46 43 41 41 39 36 36 39 41 47 34 31 30 31 27 25 10 5 3 6 9 6 10 9 20 21 13 24 29
61 62 61 61 62 65 66 65 63 62 62 59 58 57 54 57 55 49 45 42 40 38 36 32 32 33 38 34 28 26 27 22 15 6 4 1 5 5 5 6 10 7 8 9 17 25 30
64 65 64 67 70 72 72 70 69 68 66 64 62 58 54 54 49 45 43 41 40 36 33 27 28 28 38 25 22 23 18 10 5 8 2 8 2 2 3 10 11 8 11 14 19 25 29
67 66 69 73 76 77 74 72 72 70 67 61 57 53 47 46 46 40 38 39 38 33 29 26 25 28 32 17 19 15 7 8 7 5 7 1 6 4 4 13 10 7 12 12 16 22 25
69 69 73 78 78 76 75 72 71 65 61 58 51 48 42 42 42 37 33 37 35 30 27 24 23 30 11 11 13 10 4 7 9 7 4 4 6 11 5 11 17 10 9 12 14 12 22
71 73 78 81 77 77 74 70 67 63 61 55 49 46 44 41 37 34 32 33 31 29 24 19 19 12 5 3 11 16 11 16 9 5 4 7 8 11 7 15 13 12 11 11 9 12 13
74 77 81 79 80 78 75 71 65 58 48 47 42 38 38 39 32 31 32 30 27 24 17 14 15 7 4 7 12 14 18 13 8 4 6 20 15 18 19 16 10 12 11 17 6 16 17
77 80 81 83 82 78 77 67 56 52 46 39 33 35 29 35 30 32 29 26 24 19 13 10 13 6 8 11 11 12 12 12 10 9 13 16 13 19 19 15 10 12 10 11 9 14 13
82 86 87 87 79 79 70 60 59 40 27 21 12 17 34 34 32 31 27 24 22 15 11 8 14 12 15 15 13 11 8 7 10 13 19 11 14 16 20 18 11 15 14 18 11 11 7
82 81 84 83 79 79 66 64 38 24 16 8 13 11 17 36 36 31 27 24 17 14 10 8 5 13 22 16 13 10 10 12 13 11 11 15 16 17 18 14 19 20 24 20 16 13 9
74 80 85 76 84 71 64 47 29 19 10 12 20 14 28 43 38 32 28 21 17 12 9 10 12 19 26 16 8 9 18 22 21 22 21 14 17 21 21 19 21 19 15 10 8 15 15
81 84 77 79 77 69 63 33 20 11 10 19 14 17 40 37 34 29 26 21 16 12 8 7 18 24 25 18 8 11 14 16 16 17 17 15 15 18 24 22 20 20 17 13 12 13 16
82 79 75 77 73 67 41 23 8 9 12 19 16 16 41 33 31 27 23 20 15 10 9 9 21 28 28 21 14 15 16 17 16 15 13 19 21 24 22 19 22 17 17 13 13 13 13
84 77 77 75 71 49 27 9 16 13 17 24 25 35 35 32 27 25 21 18 12 8 11 2 25 33 32 22 18 17 18 19 19 18 16 17 17 19 22 22 21 17 17 18 13 11 10
85 78 78 73 54 32 18 21 19 19 25 28 27 33 35 31 25 23 20 15 12 7 8 19 28 34 32 25 22 22 22 20 20 19 18 18 17 18 18 18 19 19 18 17 19 15 11
88 83 77 57 40 24 12 19 16 24 25 23 30 35 33 30 27 21 17 16 10 8 2 16 29 38 33 29 26 23 21 20 18 17 15 13 13 13 13 14 20 22 20 21 21 21 19
91 81 62 46 34 17 21 17 12 14 23 26 32 34 32 29 24 20 18 10 8 1 7 15 28 38 33 28 28 22 21 22 20 17 14 13 11 11 12 14 16 22 22 22 18 17 15
89 72 52 36 24 26 25 17 16 20 25 29 29 29 29 25 21 19 13 9 5 2 8 19 29 35 37 30 25 21 19 16 15 15 14 14 13 12 12 12 12 16 23 24 23 18 15
84 63 44 23 23 24 27 25 19 19 26 28 27 25 23 18 15 11 8 4 3 3 7 21 27 32 33 31 26 21 19 17 15 14 11 12 11 13 14 13 12 10 11 15 20 19 18
80 57 33 22 21 23 27 27 24 24 26 26 23 19 16 13 10 5 2 1 3 6 10 17 23 27 27 28 26 20 14 16 18 12 7 5 6 8 9 11 10 10 9 9 9 10 11
74 52 25 21 19 21 25 29 29 28 27 23 19 14 12 7 6 5 4 4 6 11 14 18 18 25 28 26 23 20 19 20 17 14 12 10 8 8 11 10 9 8 7 7 6 7 8
68 45 22 18 18 20 21 24 29 26 23 19 13 10 7 6 5 5 7 9 14 16 19 21 21 21 21 21 21 17 17 15 15 17 19 15 13 13 12 13 13 10 10 12 10 11 13
66 30 21 15 18 16 16 20 20 19 16 14 11 10 10 7 6 6 7 12 21 25 26 25 24 24 23 21 18 15 13 12 7 6 9 7 7 5 5 5 3 2 2 2 4 8 10
64 23 10 10 12 11 13 14 15 13 12 11 8 9 8 4 6 6 10 18 23 26 26 26 26 26 25 22 22 20 19 17 17 16 15 14 12 9 7 5 2 3 3 3 4 5 9
56 35 8 6 10 8 13 10 10 9 7 7 7 5 3 4 4 5 15 21 22 22 21 21 22 22 22 21 19 19 18 16 14 13 11 11 8 6 5 3 2 4 6 9 11 14 17
Wind_Direction
308 306 305 306 305 301 304 304 306 306 302 298 294 291 291 290 290 289 287 283 279 278 280 284 286 296 303 309 308 310 303 298 297 301 301 299 299 297 289 279 269 271 261 252 239 235 231
307 307 306 305 304 303 303 301 303 304 299 297 295 294 289 287 286 285 283 282 279 277 279 284 285 295 298 305 310 308 304 304 306 308 309 307 303 292 281 254 260 266 258 254 244 241 223
307 308 308 305 302 299 300 302 305 305 301 298 293 291 292 286 284 282 278 276 277 274 278 283 292 300 299 316 315 310 308 309 311 316 317 312 296 240 214 268 274 271 268 258 227 209 192
309 308 309 309 307 307 306 307 306 303 300 296 289 286 288 284 281 279 275 273 272 273 276 283 292 300 303 307 319 312 309 312 321 323 320 305 173 260 278 286 284 303 222 178 141 182 184
315 314 315 315 312 309 309 309 306 302 298 295 287 283 281 280 279 276 272 269 269 272 277 285 293 296 309 312 316 309 311 318 325 324 318 148 277 287 300 290 282 191 174 169 172 187 185
323 318 316 316 315 315 314 312 306 301 296 292 289 286 280 276 277 270 267 265 264 267 275 287 293 302 312 318 309 309 319 325 326 325 124 137 303 266 311 205 140 156 170 161 157 186 183
322 318 319 318 318 319 317 312 305 299 296 293 291 284 280 272 272 265 261 260 263 265 274 284 298 310 310 320 308 324 331 345 11 156 115 340 32 105 36 202 145 151 127 173 168 186 191
321 321 321 321 322 321 316 310 305 303 299 295 289 285 277 269 266 262 257 256 258 264 269 279 299 308 317 314 329 345 34 48 110 118 42 70 139 291 155 172 179 132 112 163 180 185 197
324 324 324 324 324 319 314 311 308 305 301 295 288 280 270 265 262 253 248 252 254 259 266 280 299 313 315 327 13 13 75 81 139 70 65 5 0 103 146 136 138 146 113 126 177 186 191
326 326 327 327 322 319 316 315 313 309 304 296 287 272 259 255 254 248 236 244 252 257 266 275 305 319 298 9 43 48 109 128 119 96 98 95 81 110 92 118 125 126 108 122 151 177 191
328 330 330 326 324 324 323 320 317 313 306 301 289 274 258 240 238 237 230 236 243 250 260 269 300 297 181 120 82 80 114 128 128 138 104 113 106 109 114 124 112 107 100 113 141 180 164
331 333 329 328 328 326 326 324 320 315 309 301 289 268 246 228 216 223 221 222 231 239 255 275 306 149 145 131 99 104 122 113 105 117 118 113 107 81 90 116 117 104 108 125 150 171 164
334 335 332 328 329 328 328 328 321 320 318 320 8 347 229 209 203 210 207 207 218 224 233 256 300 160 153 138 107 114 146 122 115 126 118 120 98 89 91 84 121 116 120 123 150 188 199
339 334 327 330 326 331 330 331 331 333 338 350 343 316 226 192 189 193 194 194 193 212 224 244 152 152 149 135 96 111 150 124 82 128 126 136 123 117 103 93 111 123 132 113 101 136 143
337 327 330 330 328 330 332 335 340 351 336 343 347 333 202 175 178 182 182 175 184 201 218 251 167 155 160 158 125 114 111 115 107 110 140 133 136 115 122 107 109 127 138 93 110 108 115
335 329 334 326 329 331 333 338 353 351 3 8 59 49 160 161 173 173 175 170 177 197 206 221 148 157 156 151 131 130 145 134 121 115 111 109 136 138 131 112 120 125 136 138 130 135 100
335 334 331 330 331 333 341 355 26 75 47 46 99 127 150 160 166 170 171 169 180 185 221 245 156 154 145 142 143 131 129 128 132 135 129 119 112 118 124 122 124 127 121 123 127 125 112
338 335 334 333 334 341 355 29 108 97 88 75 102 125 149 151 161 167 166 173 174 191 223 186 162 152 146 145 143 125 122 124 125 128 130 136 122 132 125 120 116 125 132 124 120 126 119
341 339 337 336 343 356 11 127 114 124 98 105 99 128 146 151 156 162 165 154 164 204 219 145 158 156 150 146 136 135 127 121 117 120 116 115 121 134 138 129 124 117 127 132 132 124 125
345 342 343 344 353 6 75 131 121 134 95 123 131 139 148 150 156 161 155 165 187 202 168 148 156 158 147 147 147 138 132 122 111 107 112 118 116 116 122 130 140 138 130 139 133 129 131
349 346 350 355 3 43 100 109 128 143 108 121 137 140 143 148 153 157 162 171 166 138 93 149 160 164 162 156 154 147 136 125 116 105 106 113 113 115 118 127 140 151 151 150 142 142 146
352 351 356 10 53 80 94 88 89 113 111 119 130 137 139 146 150 158 161 172 159 25 122 151 162 169 176 171 165 162 155 150 138 117 109 112 108 112 108 115 133 155 162 168 161 171 167
355 354 3 40 75 86 84 78 93 107 119 123 130 134 140 144 149 151 150 179 243 76 123 155 163 168 175 180 182 176 171 177 180 151 129 118 119 129 125 125 131 155 166 166 168 181 191
360 0 12 64 88 93 103 105 115 119 121 121 126 135 141 143 146 120 90 341 72 88 126 153 161 174 177 180 187 196 209 199 191 175 179 172 142 159 163 153 148 154 146 147 156 175 199
4 6 26 62 96 116 122 124 126 125 123 124 133 138 139 126 80 18 39 86 89 108 125 140 149 169 181 186 192 199 201 201 208 211 220 229 228 206 194 197 203 215 218 221 218 220 230
10 9 42 70 103 123 125 129 128 126 124 125 122 117 98 67 42 75 80 100 108 112 118 125 127 135 164 180 185 192 199 209 221 223 224 226 225 220 218 225 232 240 238 237 237 252 252
13 16 43 67 107 119 132 135 130 127 120 110 98 74 48 29 74 70 88 114 113 112 112 113 114 115 118 125 133 137 136 133 135 145 116 129 167 191 213 221 216 245 281 296 282 291 302
5 22 53 108 125 127 143 136 130 126 111 89 60 34 28 82 83 100 120 119 118 114 112 110 111 108 109 109 108 107 105 100 96 91 90 92 90 90 78 64 50 23 31 342 317 310 291
359 3 37 123 130 138 158 148 139 121 88 56 41 33 92 114 109 138 129 120 118 115 116 115 115 114 114 113 111 109 105 102 100 97 93 90 85 81 68 43 350 301 291 289 285 280 280